Flag for India Weather past 2 weeks in Dharamshala, Himachal Pradesh, India

Now
43 °F

Fog.


Feels Like: 43 °F
Forecast: 30 / 56 °F
Wind: No wind

Location: Amritsar Airport

Current Time: Dec 20, 2014 at 9:59:13 AM

Latest Report: Dec 20, 2014 at 9:00 AM


Visibility: 0 mi

Pressure: 30.21 "Hg

Humidity: 100%

Dew point: 43 °F

Location of DharamshalaLocation

Historic Weather in Dharamshala — Graph

°F

Dharamshala temperature yesterday

Maximum temperature yesterday: 48 °F (at 1:00 PM)
Minimum temperature yesterday: 43 °F (at 7:00 AM)
Average temperature yesterday: 45 °F

Past Weeks' High & Low Weather Summary

 TemperatureHumidityPressure
High77 °F (Dec 5, 2:00 PM)100% (Dec 8, 3:30 AM)30.27 "Hg (Dec 8, 3:30 AM)
Low37 °F (Dec 16, 7:30 AM)22% (Dec 9, 3:30 PM)29.77 "Hg (Dec 12, 2:30 PM)
Average54 °F75%30.08 "Hg
* Reported Dec 5 9:00 AM — Dec 20 9:00 AM, Dharamshala, Weather by CustomWeather, © 2014

Note: Actual official high and low records may vary slightly from our data, if they occured in-between our weather recording intervals... More about our weather records

Advertising

Dharamshala weather history for previous 24 hours

 ConditionsComfort  
Time TempWeatherWind HumidityBarometerVisibility
9:00 AM
Dec 20
43 °FFog.No wind100%30.21 "Hg0 mi
7:30 AM43 °FFog.No wind100%30.18 "Hg0 mi
7:00 AM43 °FFog.No wind100%30.18 "Hg0 mi
6:00 AM43 °FFog.No wind100%30.18 "Hg0 mi
5:30 AM43 °FFog.No wind100%30.15 "Hg0 mi
5:00 AM43 °FFog.No wind100%30.15 "Hg0 mi
4:30 AM43 °FFog.No wind100%30.15 "Hg0 mi
3:00 AM45 °FFog.No wind93%30.18 "Hg0 mi
1:30 AM45 °FFog.No wind93%30.21 "Hg0 mi
1:00 AM45 °FFog.No wind93%30.21 "Hg0 mi
12:30 AM45 °FFog.No wind93%30.21 "Hg0 mi
12:00 AM45 °FFog.No wind93%30.24 "Hg0 mi
11:30 PM
Dec 19
45 °FFog.No wind100%30.24 "Hg0 mi
11:00 PM45 °FFog.No wind93%30.24 "Hg0 mi
10:30 PM45 °FFog.No wind100%30.24 "Hg1 mi
10:00 PM45 °FFog.No wind93%30.24 "Hg1 mi
9:00 PM45 °FQuite cool.No wind93%30.21 "Hg1 mi
7:30 PM45 °FFog.2 mph100%30.21 "Hg1 mi
7:00 PM45 °FFog.1 mph100%30.21 "Hg1 mi
6:30 PM45 °FFog.No wind100%30.18 "Hg1 mi
6:00 PM46 °FFog.No wind93%30.18 "Hg1 mi
4:30 PM46 °FFog.No wind93%30.18 "Hg1 mi
4:00 PM46 °FFog.No wind93%30.18 "Hg1 mi
3:30 PM46 °FFog.No wind93%30.18 "Hg1 mi
3:00 PM46 °FFog.1 mph93%30.21 "Hg1 mi
2:30 PM48 °FFog.1 mph87%30.21 "Hg1 mi
2:00 PM46 °FFog.6 mph93%30.21 "Hg1 mi
1:30 PM46 °FFog.No wind93%30.21 "Hg1 mi
1:00 PM48 °FFog.3 mph87%30.24 "Hg1 mi
12:30 PM46 °FFog.2 mph93%30.24 "Hg1 mi
11:00 AM45 °FFog.2 mph100%30.24 "Hg1 mi
10:30 AM45 °FFog.3 mph100%30.27 "Hg1 mi
10:00 AM45 °FFog.No wind100%30.27 "Hg0 mi
9:30 AM45 °FFog.No wind100%30.27 "Hg0 mi
9:00 AM45 °FFog.No wind100%30.24 "Hg0 mi
Weather by CustomWeather, © 2014

See weather overviewHow to use our weather pages